Content
SEND FEEDBACK

Daily
Averages
Monthly
Summary
United States of America

SWAN VALLEY, IDAHO


Home > North America > United States > Idaho
Elevation: 6121 feet     Latitude: 43 22N     Longitude: 111 14W

WEATHER
 
SELECT A DAY
Number of Records: 102,622;   Date Range: 2/28/06 - 10/23/14
 
SHARE

PRINT THIS DATA

[ ← Previous Day ]
WEATHER ALMANAC - JANUARY 31, 2013
[ Next Day → ]
[ °C ]   °F
Weather ElementAverageHighLow
Temperature28.7 °F31.1 °F (1:56 pm)24.1 °F (5:56 pm)
Dewpoint23.7 °F28 °F (11:56 pm)20.1 °F (1:56 am)
Humidity81.5 %92 % (11:56 pm)75 % (1:56 am)
Barometer30.21 in30.26 in (10:56 am)30.14 in (1:56 am)
Wind Speed9.6 mph16.1 mph (7:56 am)
Weather ElementAverage
Visibility8.8 mi
Wind DirectionSSE (168.4 °)

Weather ElementTotal
Precipitation0.01 in
Heating Degree Days37.4 (Base 65)
Averaged from 31 records on January 31, 2013
WEATHER CONDITIONS BREAKOUT
WIND DIRECTION BREAKOUT
WEATHER BY HOUR - JANUARY 31, 2013
[ °C ]   °F
Local TimeTemperatureDewpointHumidityBarometerVisibilityWind DirectionWind SpeedGust SpeedPrecipitationEventsConditions
1:56 AM27.1 °F20.1 °F75 %30.14 in10.0 miSSE (150°)4.6 mphOvercast
2:56 AM26.1 °F21.0 °F81 %30.16 in10.0 miSSE (160°)9.2 mphOvercast
3:56 AM28.0 °F21.0 °F75 %30.16 in10.0 miSSW (200°)11.5 mphOvercast
4:56 AM27.1 °F21.0 °F78 %30.18 in10.0 miSSE (150°)9.2 mphOvercast
5:56 AM27.1 °F21.0 °F78 %30.20 in10.0 miSSE (150°)9.2 mphOvercast
6:56 AM27.1 °F21.0 °F78 %30.20 in10.0 miSouth (170°)15.0 mphOvercast
7:56 AM27.1 °F22.1 °F81 %30.21 in10.0 miSouth (170°)16.1 mphOvercast
8:56 AM27.1 °F23.0 °F84 %30.22 in10.0 miSouth (170°)15.0 mphOvercast
9:56 AM28.0 °F23.0 °F81 %30.24 in10.0 miSouth (170°)13.8 mphOvercast
10:56 AM29.1 °F23.0 °F78 %30.26 in10.0 miSouth (170°)13.8 mphOvercast
11:56 AM29.1 °F23.0 °F78 %30.25 in10.0 miSouth (180°)11.5 mphOvercast
12:56 PM30.0 °F23.0 °F75 %30.24 in10.0 miSouth (180°)10.4 mphOvercast
1:56 PM31.1 °F24.1 °F75 %30.23 in10.0 miSouth (180°)10.4 mph0.01 inOvercast
2:49 PM30.2 °F24.8 °F80 %30.21 in10.0 miSouth (180°)9.2 mph0.00 inOvercast
2:56 PM31.1 °F24.1 °F75 %30.23 in10.0 miSouth (170°)8.1 mph0.00 inOvercast
3:41 PM30.2 °F24.8 °F80 %30.22 in9.0 miSouth (170°)5.8 mph0.00 inSnowLight Snow
3:56 PM30.0 °F25.2 °F82 %30.23 in10.0 miSouth (190°)8.1 mph0.00 inOvercast
4:40 PM30.2 °F24.8 °F80 %30.22 in10.0 miSSW (210°)5.8 mphOvercast
4:56 PM30.0 °F24.1 °F79 %30.23 in10.0 miSW (220°)11.5 mphOvercast
5:11 PM28.4 °F23.0 °F80 %30.21 in10.0 miSSW (200°)10.4 mphOvercast
5:56 PM24.1 °F20.1 °F85 %30.25 in10.0 miSSE (150°)6.9 mphMostly Cloudy
6:09 PM24.8 °F21.2 °F86 %30.21 in10.0 miSSE (160°)6.9 mphMostly Cloudy
7:33 PM28.4 °F24.8 °F86 %30.21 in5.0 miSSE (160°)10.4 mph0.00 inSnowLight Snow
7:56 PM28.0 °F25.2 °F89 %30.23 in8.0 miSSE (150°)10.4 mph0.00 inSnowLight Snow
8:56 PM29.1 °F25.2 °F85 %30.22 in10.0 miSSE (160°)8.1 mph0.00 inOvercast
9:56 PM30.0 °F25.2 °F82 %30.20 in10.0 miSSE (160°)9.2 mph0.00 inOvercast
10:56 PM30.0 °F27.1 °F89 %30.17 in10.0 miSE (140°)9.2 mph0.00 inOvercast
11:17 PM30.2 °F26.6 °F86 %30.17 in3.0 miSSE (150°)6.9 mph0.00 inSnowLight Snow
11:21 PM30.2 °F26.6 °F86 %30.17 in2.5 miSSE (150°)6.9 mph0.00 inSnowLight Snow
11:37 PM30.2 °F26.6 °F86 %30.17 in1.5 miSSE (150°)8.1 mph0.00 inSnowLight Snow
11:56 PM30.0 °F28.0 °F92 %30.17 in4.0 miSSE (150°)6.9 mph0.00 inSnowLight Snow
Hourly data recorded from KDIJ, located miles away from Swan Valley, Idaho







STORIES FROM OUR PARTNERS